Simultaneous Nadir Overpasses (SNOs) Predictions

Prediction of SNOs between LANDSAT-8 and METOP-B Satellite Orbit:

Table of predicted SNOs for the next 14.0 days since TLE Epoch: 12/21/2019
Index Date (LANDSAT-8) Time (LANDSAT-8) Lat,Lon (LANDSAT-8) SZA (LANDSAT-8 ) Date (METOP-B) Time (METOP-B) Lat,Lon (METOP-B) SZA (METOP-B ) Distance(km) Time Diff (sec)
1 12/22/2019 22:34:02 -81.08, 60.76 73.59 12/22/2019 22:33:03 -81.09, 60.84 73.60 1.40 59
2 12/22/2019 23:23:27 81.11,-131.19 106.48 12/22/2019 23:23:42 81.11,-131.06 106.50 2.27 15
3 12/25/2019 18:08:17 -81.07, 127.03 73.69 12/25/2019 18:07:28 -81.07, 126.93 73.72 1.61 49
4 12/25/2019 18:57:42 81.10, -64.96 106.37 12/25/2019 18:58:07 81.10, -65.00 106.38 0.88 25
5 12/28/2019 13:42:30 -81.08,-166.38 73.81 12/28/2019 13:41:50 -81.09,-166.23 73.81 2.65 40
6 12/28/2019 14:31:55 81.11, 1.61 106.24 12/28/2019 14:32:30 81.10, 1.42 106.24 3.28 35
7 12/31/2019 09:16:44 -81.09, -99.82 74.00 12/31/2019 09:16:14 -81.09, -99.78 74.00 0.67 30
8 12/31/2019 10:06:09 81.11, 68.15 106.05 12/31/2019 10:06:53 81.12, 68.22 106.08 1.19 44
9 01/03/2020 04:50:58 -81.10, -33.30 74.25 01/03/2020 04:50:38 -81.09, -33.34 74.26 0.85 20




NCC Satellite Simultaneous Nadir Overpasses (SNOs) Prediction Service
